Location: Dobrzeń Wielki
(50.7693°N, 17.8414°E)
Time: 09:09:07
(UTC+02:00)

Envisat - Visible Passes

Search period start: 21 October 2019 00:00
Search period end: 30 October 2019 23:00
Orbit: 764 x 766 km, 98.1° (Epoch: 21 October)

Date Brightness Start Highest point End Pass type
(mag) Time Alt. Az. Time Alt. Az. Time Alt. Az.
21 Oct 3.3 18:55:24 10° S 19:00:28 70° WSW 19:05:34 10° NNW visible
21 Oct 6.2 20:39:08 10° W 20:40:27 11° W 20:41:45 10° WNW visible
22 Oct 3.0 18:18:43 10° SSE 18:23:43 61° ENE 18:28:44 10° N visible
22 Oct 5.5 19:59:13 10° SW 20:03:09 22° W 20:07:06 10° NW visible
23 Oct 6.2 06:23:56 10° NE 06:26:44 15° E 06:29:32 10° ESE visible
23 Oct 4.3 19:21:15 10° S 19:26:04 43° W 19:30:56 10° NNW visible
24 Oct 3.1 18:44:06 10° SSE 18:49:11 85° WSW 18:54:19 10° NNW visible
24 Oct 6.1 20:26:28 10° WSW 20:29:00 14° W 20:31:33 10° NW visible
25 Oct 5.8 06:48:30 10° NE 06:52:34 24° E 06:56:38 10° SE visible
25 Oct 3.2 18:07:37 10° SE 18:12:30 50° ENE 18:17:24 10° N visible
25 Oct 5.1 19:47:29 10° SSW 19:51:46 27° W 19:56:05 10° NW visible
26 Oct 6.4 06:13:29 10° ENE 06:15:18 12° E 06:17:07 10° ESE visible
26 Oct 3.8 19:09:47 10° S 19:14:44 53° W 19:19:45 10° NNW visible
27 Oct 2.9 17:32:51 10° SSE 17:37:56 79° ENE 17:43:02 10° NNW visible
27 Oct 5.8 19:14:19 10° SW 19:17:34 17° W 19:20:50 10° NW visible
28 Oct 6.0 05:37:32 10° NE 05:41:11 19° E 05:44:49 10° SE visible
28 Oct 4.8 18:35:51 10° SSW 18:40:24 33° W 18:45:00 10° NNW visible
29 Oct 3.4 17:58:24 10° S 18:03:26 65° WSW 18:08:32 10° NNW visible
30 Oct 5.3 06:02:26 10° NNE 06:06:57 31° E 06:11:26 10° SSE visible
30 Oct 3.0 17:21:39 10° SSE 17:26:40 65° ENE 17:31:43 10° N visible
30 Oct 5.5 19:02:24 10° SW 19:06:10 21° W 19:09:57 10° NW visible
